World > North America > United States > Wisconsin

Mellen, Wisconsin Regional Weather

Lat: 46.32N, Lon: 90.66W
Wx Zone: WIZ003Web Search
Mellen Weather Warning NWS WEATHER ALERT FOR THE MELLEN, WI AREA - Issued: 300 PM CST Sun Jan 17 2021 Mellen Weather Warning  

Helpful Tip: Abbreviated, 7 Day, 14 Day Forecasts. There is a weather forecast for every taste.

Feedback
Mellen Weather Map
UTC Time: 1/17/2021, 21:24
Your Time:

Mellen, WI Regional Weather

Expires:202101172200;;073512
ASUS43 KMKX 172120
RWRWI 

WISCONSIN REGIONAL WEATHER ROUNDUP
NATIONAL WEATHER SERVICE MILWAUKEE/SULLIVAN WI
300 PM CST SUN JAN 17 2021

NOTE: "FAIR" INDICATES FEW OR NO CLOUDS BELOW 12,000 FEET WITH NO
SIGNIFICANT WEATHER AND/OR OBSTRUCTIONS TO VISIBILITY.


WIZ003>005-009-010-017-018-172200-
NORTH CENTRAL WISCONSIN
  
CITY           SKY/WX    TMP DP  RH WIND       PRES   REMARKS
MANITOWISH WTR CLOUDY    22  19  89 NW6       29.68S WCI  14          
ARBOR VITAE    CLOUDY    24  16  70 CALM      29.67S                  
WOODRUFF       CLOUDY    24  16  70 CALM      29.67S                  
RHINELANDER    CLOUDY    22  16  78 N6        29.68R WCI  14          
EAGLE RIVER    CLOUDY    24  18  78 CALM      29.65F                  
LAND O LAKES   CLOUDY    24  20  85 N6        29.68S WCI  17          
PHILLIPS       CLOUDY    24  19  83 N5        29.68S WCI  18          
TOMAHAWK       CLOUDY    23  19  83 N5        29.69S WCI  17          
MEDFORD        CLOUDY    25  19  77 N6        29.68S WCI  18          
MERRILL        CLOUDY    26  21  82 N6        29.68S WCI  19          
$$
 

SKY/WX - Weather  TMP - Temperature  DP - Dew Point  RH - Relative Humidity
WIND - Wind Direction/Speed PRES - Barometric Pressure VSB - Visibility
WCI - Wind Chill Index E13G22 Wind - East Wind 13 mph/Gusts of 22 mph